Miscellaneous Local Product
Issued by NWS Hastings, NE

Home | Current Version | Previous Version | Graphics & Text | Print | Product List | Glossary On
Versions: 1 2 3 4 5 6 7 8 9 10 11 12 13 14 15 16 17 18 19 20 21 22 23 24 25 26 27 28 29 30 31 32 33 34 35 36 37 38 39 40 41 42 43 44 45 46 47 48 49 50
000
AXUS43 KGID 311802
MISGRI

GID CWA HOURLY WEATHER ROUNDUP
NATIONAL WEATHER SERVICE HASTINGS NE
100 PM CDT MON AUG 31 2015

NOTE: "FAIR" INDICATES FEW OR NO CLOUDS BELOW 12,000 FEET WITH NO
SIGNIFICANT WEATHER AND/OR OBSTRUCTIONS TO VISIBILITY.

...SOUTH CENTRAL NEBRASKA...

CITY           SKY/WX    TMP DP  RH WIND       PRES   REMARKS
GRAND ISLAND   SUNNY     84  67  56 S13       29.94F
HASTINGS       SUNNY     85  67  54 S13       29.94F
KEARNEY        SUNNY     84  64  51 S14       29.94S
ORD            SUNNY     85  62  46 S8        29.92F
YORK           SUNNY     81  72  74 S10       29.95F
AURORA         SUNNY     82  69  65 S13G18    29.95F
LEXINGTON      SUNNY     86  61  42 S7        29.93S
HOLDREGE       SUNNY     83  60  45 S13       29.94F
HEBRON         SUNNY     83  66  56 S14       29.95F

...NEBRASKA PANHANDLE...

CITY           SKY/WX    TMP DP  RH WIND       PRES   REMARKS
CHADRON        CLOUDY    75  54  47 N14       30.02R HAZE
ALLIANCE       CLOUDY    81  51  35 N8        30.02S
SCOTTSBLUFF    PTSUNNY   85  49  28 NW6       30.02F
SIDNEY         CLOUDY    81  50  33 NE10      30.06S

...WESTERN AND NORTH CENTRAL NEBRASKA...

CITY           SKY/WX    TMP DP  RH WIND       PRES   REMARKS
VALENTINE      SUNNY     85  58  39 NW16G24   29.93R
AINSWORTH      SUNNY     87  54  32 W3        29.91F
ONEILL         SUNNY     83  64  51 S14G21    29.90F
BROKEN BOW     SUNNY     85  64  49 S8        29.94F
IMPERIAL       MOSUNNY   90  52  27 NE14      29.96F
NORTH PLATTE   SUNNY     83  57  41 CALM      29.94F
MCCOOK         SUNNY     87  58  37 SE10      29.92F

...EASTERN NEBRASKA...

CITY           SKY/WX    TMP DP  RH WIND       PRES   REMARKS
NORFOLK        SUNNY     81  69  67 S15       29.92F
SO SIOUX CITY  SUNNY     82  68  62 S15       29.92F
TEKAMAH        MOSUNNY   81  70  69 S12G20    29.94F
COLUMBUS       SUNNY     81  66  61 S10G18    29.94F
ALBION         SUNNY     79  67  66 S13       29.94F
OMAHA EPPLEY   MOSUNNY   83  70  64 S12       29.95F
OFFUTT AFB     MOSUNNY   83  69  62 S8        29.95F
MILLARD        PTSUNNY   82  71  70 S13       29.95F
LINCOLN        MOSUNNY   84  67  56 S13       29.95F
NEBRASKA CITY  PTSUNNY   81  64  57 S10       29.97F
BEATRICE       SUNNY     83  67  59 S10G20    29.95F
FALLS CITY     MOSUNNY   86  67  52 S12       29.96F

...NORTHERN KANSAS...

CITY           SKY/WX    TMP DP  RH WIND       PRES   REMARKS
GOODLAND       SUNNY     89  52  28 VRB6      29.97F
HILL CITY      SUNNY     92  57  30 SE10      29.92F HX  90
NORTON         CLEAR     88  57  35 SE8       29.92F
PHILLIPSBURG   SUNNY     90  61  37 SE10      29.92F
SMITH CENTER   SUNNY     86  63  45 SE13      29.93F
HAYS           SUNNY     91  61  35 S12       29.92F HX  91
RUSSELL        SUNNY     93  57  29 S21G30    29.91F HX  91
CONCORDIA      SUNNY     85  68  56 S14       29.94F
SALINA         SUNNY     92  64  39 S13G20    29.92F HX  93
TOPEKA         SUNNY     87  69  54 S7        29.97F HX  91



USA.gov is the U.S. government's official web portal to all federal, state and local government web resources and services.